SCP
0 0 0 0 0 0 0 0 0 0 0 0 0 0 0 0 0 0 0 -0 0 0 0 0 0 0 0 0 0 0 0 0 0 0 -0 0 0 -0 -0 -0 -0 -0 -0 -0 -0 -0 -0 -0 -0
0 0 0 0 0 0 0 0 0 0 0 0 0 0 0 0 0 0 0 -0 0 0 0 0 0 0 0 0 0 0 0 0 -0 0 -0 -0 -0 -0 -0 -0 -0 -0 -0 -0 -0 -0 -0 -0 -0
0 0 0 0 0 0 0 0 0 0 0 0 0 0 0 0 0 0 -0 0 0 0 0 0 0 0 0 0 0 0 0 0 -0 0 -0 -0 -0 -0 -0 -0 -0 -0 -0 -0 -0 -0 -0 -0 -0
0 0 0 0 0 0 0 0 0 0 0 0 0 0 0 0 -0 0 -0 -0 -0 0 0 0 -0 -0 -0 0 0 0 0 0 -0 0 -0 -0 -0 -0 -0 -0 -0 -0 -0 -0 -0 -0 -0 -0 -0
0 0 0 0 0 0 0 0 0 0 0 0 0 0 0 0 0 -0 -0 -0 -0 -0 0 0 -0 -0 -0 -0 0 0 0 -0 -0 -0 -0 -0 -0 -0 -0 -0 -0 -0 -0 -0 -0 -0 -0 -0 -0
0 0 0 0 0 0 0 0 0 0 0 0 0 0 0 0 -0 -0 -0 -0 -0 -0 -0 0 -0 -0 -0 -0 -0 0 -0 -0 -0 -0 -0 -0 -0 -0 -0 -0 -0 -0 -0 -0 -0 -0 -0 -0 -0
0 0 0 0 0 0 0 0 0 0 0 0 0 0 0 0 -0 -0 -0 -0 -0 -0 -0 0 0 0 -0 -0 -0 -0 -0 -0 -0 -0 -0 -0 -0 -0 -0 -0 -0 -0 -0 -0 -0 -0 -0 0 0
0 0 0 0 0 0 0 0 0 0 0 0 0 0 0 -0 -0 -0 -0 -0 -0 -0 -0 -0 0 0 0 0 -0 -0 -0 -0 -0 -0 -0 -0 -0 -0 -0 -0 -0 -0 0 -0 -0 -0 -0 0 0
0 0 0 0 0 0 0 0 0 0 0 0 0 0 0 -0 -0 -0 -0 -0 -0 -0 -0 -0 0 0 0 0 0 -0 -0 -0 -0 -0 -0 -0 0 0 0 0 -0 -0 0 0 0 -0 0 0 0
0 0 0 0 0 0 0 0 0 0 0 0 0 0 0 -0 -0 -0 -0 -0 -0 -0 -0 -0 -0 -0 -0 0 0 0 0 0 0 0 0 0 0 0 0 0 -0 0 0 0 0 0 0 0 0
0 0 0 0 0 0 0 0 0 0 0 0 0 0 0 -0 -0 -0 -0 -0 -0 -0 -0 -0 -0 -0 -0 -0 0 0 0 0 0 0 0 0 0 0 0 0 0 0 0 0 0 0 0 0 0
0 0 0 0 0 0 0 0 0 0 0 0 0 0 0 0 -0 -0 -0 -0 -0 -0 -0 -0 -0 -0 -0 -0 -0 -0 -0 0 0 0 -0 0 0 0 0 0 0 0 0 0 0 0 0 0 0
0 0 0 0 0 0 0 0 0 0 0 0 0 0 0 0 0 0 0 0 0 -0 -0 -0 -0 -0 -0 -0 -0 -0 0 0 0 0 0 0 0 0 0 0 0 0 0 0 0 0 0 0 0
0 0 0 0 0 0 0 0 0 0 0 0 0 0 0 0 0 0 0 0 0 -0 -0 -0 -0 -0 -0 -0 -0 0 0 0 0 0 0 0 0 0 0 0 0 0 0 0 0 0 0 0 0
0 0 0 0 0 0 0 0 0 0 0 0 0 0 0 0 0 0 0 0 0 0 -0 -0 -0 -0 -0 -0 -0 0 0 0 0 0 0 0 0 0 0 0 0 0 0 0 0 0 0 0 0
0 0 0 0 0 0 0 0 0 0 0 0 0 0 0 0 0 0 0 0 0 0 0 0 -0 -0 -0 -0 0 0 0 0 0 0 0 0 0 0 0 0 0 0 0 0 0 0 0 0 0
0 0 0 0 0 0 0 0 0 0 0 0 0 0 0 0 0 -0 0 0 0 0 0 0 0 0 0 0 0 0 0 0 0 0 0 0 0 0 0 0 0 0 0 0 0 0 0 0 0
0 0 0 0 0 0 0 0 0 0 0 0 0 0 0 0 0 0 0 0 0 0 0 0 0 0 0 0 0 0 0 0 0 0 0 0 0 0 0 0 0 0 0 0 0 0 0 0 0
0 0 0 0 0 0 0 0 0 0 0 0 0 0 0 0 0 0 0 0 0 0 0 0 0 0 0 0 0 0 0 0 0 0 0 0 0 0 0 0 0 0 0 0 0 0 0 0 0
0 0 0 0 0 0 0 0 0 0 0 0 0 0 0 0 0 0 0 0 0 0 0 0 0 0 0 0 0 0 0 0 0 0 0 0 0 0 0 0 0 0 0 0 0 0 0 0 0
0 0 0 0 0 0 0 0 0 0 0 0 0 0 0 0 0 0 0 0 0 0 0 0 0 0 0 0 0 0 0 0 0 0 0 0 0 0 0 0 0 0 0 0 0 0 0 0 0
0 0 0 0 0 0 0 0 0 0 0 0 0 0 0 0 0 0 0 0 0 0 0 0 0 0 0 0 0 0 0 0 0 0 0 0 0 0 0 0 0 0 0 0 0 0 0 0 0
0 0 0 0 0 0 0 0 0 0 0 0 0 0 0 0 0 0 0 0 0 0 0 0 0 0 0 0 0 0 0 0 0 0 0 0 0 0 0 0 0 0 0 0 0 0 0 0 0
0 0 0 0 0 0 0 0 0 0 0 0 0 0 0 0 0 0 0 0 0 0 0 0 0 0 0 0 0 0 0 0 0 0 0 0 0 0 0 0 0 0 0 0 0 0 0 0 0
0 0 0 0 0 0 0 0 0 0 0 0 0 0 0 0 0 0 0 0 0 0 0 0 0 0 0 0 0 0 0 0 0 0 0 0 0 0 0 0 0 0 0 0 0 0 0 0 0
0 0 0 0 0 0 0 0 0 0 0 0 0 0 0 0 0 0 0 0 0 0 0 0 0 0 0 0 0 0 0 0 0 0 0 0 0 0 0 0 0 0 0 0 0 0 0 0 0
0 0 0 0 0 0 0 0 0 0 0 0 0 0 0 0 0 0 0 0 0 0 0 0 0 0 0 0 0 0 0 0 0 0 0 0 0 0 0 0 0 0 0 0 0 0 0 0 0
0 0 0 0 0 0 0 0 0 0 0 0 0 0 0 0 0 0 0 0 0 0 0 0 0 0 0 0 0 0 0 0 0 0 0 0 0 0 0 0 0 0 0 0 0 0 0 0 0
0 0 0 0 0 0 0 0 0 0 0 0 0 0 0 0 0 0 0 0 0 0 0 0 0 0 0 0 0 0 0 0 0 0 0 0 0 0 0 0 0 0 0 0 0 0 0 0 0
0 0 0 0 0 0 0 0 0 0 0 0 0 0 0 0 0 0 0 0 0 0 0 0 0 0 0 0 0 0 0 0 0 0 0 0 0 0 0 0 0 0 0 0 0 0 0 0 0
Wind_Speed_500mb
9 12 12 6 8 9 4 5 2 8 6 6 22 8 13 10 7 6 41 32 33 28 26 26 25 19 20 23 24 25 27 24 25 26 26 26 25 22 20 19 24 24 19 26 24 23 24 26 28
10 10 4 7 9 5 8 6 10 5 29 43 29 17 8 4 8 25 47 36 31 27 27 28 25 22 21 23 22 25 23 24 26 29 27 26 24 20 17 16 15 30 25 25 23 22 23 25 26
10 6 1 8 7 7 9 7 9 12 34 6 13 13 7 12 14 55 39 40 38 31 29 29 26 22 21 21 21 23 22 21 23 27 26 28 25 22 20 22 26 27 29 27 23 23 26 25 26
6 2 9 8 7 9 10 9 18 17 7 6 28 12 7 6 33 38 44 40 40 35 31 29 27 24 21 20 19 20 22 18 22 28 25 27 24 28 28 25 27 26 27 24 22 22 19 19 18
7 3 7 3 6 7 7 21 32 12 9 15 14 8 6 24 30 33 42 40 41 37 34 31 29 25 22 19 18 18 17 17 19 20 23 23 26 26 23 18 23 23 23 23 20 16 15 15 18
6 5 6 7 6 8 3 20 13 9 20 20 15 20 15 28 19 38 39 38 40 36 36 33 30 27 23 20 18 17 17 15 15 16 17 15 17 17 14 15 18 20 20 18 16 14 15 17 20
13 8 10 7 8 3 8 22 10 16 19 16 30 14 13 37 26 33 36 37 38 36 37 35 32 29 25 21 18 15 14 14 13 12 12 10 12 14 13 13 13 17 17 14 13 11 13 16 19
12 11 8 7 11 10 11 24 13 26 9 29 25 14 13 46 41 37 41 37 36 38 37 37 35 33 29 25 21 17 14 13 12 10 8 8 8 7 9 10 10 14 13 12 10 8 11 14 17
11 8 6 9 12 12 19 10 16 15 26 16 23 11 9 50 48 50 49 44 41 41 41 39 37 35 33 28 23 20 17 13 11 9 8 7 6 5 5 8 8 9 9 9 7 6 9 10 12
8 8 16 9 8 10 27 23 35 15 21 12 25 20 20 51 57 61 60 55 48 45 46 42 40 37 36 32 27 23 20 17 14 10 8 7 6 7 8 7 7 8 8 7 7 6 5 6 9
9 10 9 3 9 18 19 19 29 21 8 25 39 31 44 56 62 62 58 53 51 41 41 44 41 39 38 34 31 27 23 21 17 13 10 8 7 7 8 8 8 8 7 6 7 5 4 4 6
5 10 8 7 9 4 19 22 16 35 15 31 32 38 51 61 67 67 62 56 49 46 42 39 45 43 41 37 34 30 28 25 21 17 14 10 8 7 8 10 11 11 9 7 7 5 4 3 3
3 4 5 10 11 7 18 17 11 38 13 17 34 47 51 59 62 62 57 52 50 50 43 43 43 46 44 42 40 37 34 30 26 24 20 17 13 10 10 11 13 13 12 10 10 8 8 5 3
10 3 10 10 7 5 14 6 12 26 24 19 41 50 51 55 58 61 64 59 61 55 52 44 46 46 44 44 42 41 39 35 34 31 27 24 20 17 14 14 14 15 16 15 16 13 11 10 8
7 7 14 13 4 3 9 1 14 13 29 32 49 50 52 53 55 60 58 62 62 59 54 51 47 48 50 45 42 42 40 39 40 37 34 31 28 25 21 18 18 16 19 21 20 19 17 15 14
8 9 1 9 8 4 9 16 9 17 32 41 53 56 58 56 56 55 57 60 62 64 64 57 53 51 53 51 48 44 42 40 42 41 40 37 33 30 29 26 22 21 22 23 24 24 22 21 21
1 8 6 16 8 2 6 14 10 26 34 37 53 58 60 61 58 58 56 58 60 61 66 63 61 60 54 55 53 51 49 48 44 43 41 41 37 35 35 33 28 28 28 27 26 27 26 26 27
11 11 9 24 9 5 6 16 10 8 32 49 52 61 64 67 61 56 55 54 57 61 65 63 63 63 63 56 55 59 56 56 51 48 47 44 45 40 40 38 36 36 36 34 33 30 31 33 37
9 13 12 7 4 6 13 15 20 18 13 35 49 57 62 71 58 57 56 54 55 56 60 62 63 63 65 63 62 62 65 62 61 57 52 48 46 45 43 43 42 43 44 40 39 39 39 41 43
7 10 9 1 5 6 5 23 18 12 20 38 58 58 62 66 63 61 59 57 61 60 60 59 61 60 59 60 61 58 56 66 66 63 61 55 52 51 51 47 46 46 48 48 46 46 46 48 49
9 13 9 9 7 1 2 15 13 12 33 50 51 54 62 71 71 64 60 64 63 68 62 62 61 61 58 57 55 59 57 55 61 68 67 65 58 56 55 53 50 48 51 55 51 53 54 54 55
13 10 8 10 10 9 8 10 11 9 16 13 52 65 81 82 78 69 61 57 58 59 57 56 56 64 65 62 63 63 57 60 54 54 50 52 52 56 61 59 56 55 53 53 53 56 59 59 60
15 9 12 6 6 2 4 3 13 4 12 19 45 74 82 78 80 79 72 59 53 52 56 58 55 55 64 64 67 62 62 58 51 50 48 45 43 45 53 55 58 62 62 60 58 54 56 60 63
14 12 12 8 6 8 14 13 10 9 16 14 20 39 46 48 57 58 60 62 58 55 53 61 63 58 60 64 68 70 69 66 62 60 53 48 44 46 45 47 48 54 59 57 69 63 62 66 58
8 16 2 3 5 10 2 4 18 13 20 16 20 20 21 29 34 32 36 52 59 56 53 55 64 62 59 62 64 66 66 67 66 65 59 53 49 50 49 46 48 46 51 52 56 61 60 54 54
12 18 11 12 7 8 6 14 12 26 42 44 45 39 24 16 17 25 29 34 40 46 49 51 55 57 57 58 58 61 63 65 65 64 60 56 56 47 50 41 52 44 50 50 50 48 44 46 47
12 15 12 13 6 5 9 12 21 19 22 24 24 28 36 21 16 14 19 26 33 36 38 42 47 50 53 57 59 60 60 61 64 61 57 53 49 43 42 44 41 43 45 44 44 41 42 46 43
21 19 7 4 8 8 9 8 10 13 19 13 16 32 33 29 24 25 27 28 30 32 35 39 44 47 46 44 41 44 49 57 60 57 55 51 47 45 45 41 39 40 39 37 38 42 43 42 38
7 9 5 9 10 9 3 11 17 26 19 21 25 33 30 29 26 24 25 29 31 33 33 32 33 30 26 24 24 24 26 32 37 40 42 42 42 42 42 41 38 42 34 34 36 36 39 26 24
8 15 18 13 11 5 5 12 6 20 11 15 26 26 31 33 29 27 28 29 31 32 30 28 26 25 26 27 25 25 27 27 29 30 30 31 36 40 41 35 37 27 31 33 24 19 22 24 24
Wind_Direction_500mb
280 305 332 10 48 61 309 241 338 132 108 176 145 175 157 85 150 201 147 153 153 154 153 147 137 122 105 111 113 114 112 103 93 95 107 121 129 125 118 116 107 104 114 95 85 87 81 76 71
275 303 342 84 84 57 275 271 172 206 135 116 106 104 73 107 136 148 149 152 154 160 157 152 140 132 116 114 112 111 113 102 94 102 99 114 129 134 130 124 120 100 97 100 84 87 86 82 76
273 292 80 90 108 170 219 215 184 136 147 138 108 87 107 150 168 154 155 152 161 165 160 156 144 140 125 118 114 109 113 107 100 105 96 95 104 111 112 109 98 96 101 98 91 93 89 88 77
254 198 65 90 203 247 202 209 160 140 133 136 123 72 92 168 159 157 159 160 165 166 163 161 152 149 136 126 115 106 111 109 98 108 100 99 94 92 95 98 95 99 105 105 97 92 85 76 65
205 110 67 87 261 250 248 176 166 144 132 129 137 155 92 144 159 163 164 166 171 169 168 167 160 157 149 138 129 119 112 102 100 105 114 111 110 111 122 104 104 104 100 95 92 85 73 64 51
123 92 75 208 259 293 157 163 179 142 145 145 117 127 144 167 179 168 171 170 176 176 172 173 168 166 162 156 145 132 122 113 107 105 103 107 116 124 122 100 92 97 100 95 84 72 66 58 59
133 94 197 193 213 276 177 190 189 165 159 178 151 129 177 186 189 182 178 174 181 186 180 178 176 174 172 168 158 147 133 126 118 111 111 110 104 109 111 105 93 103 109 99 85 73 69 66 61
139 98 130 222 179 235 196 170 209 179 191 157 166 170 187 186 185 183 179 180 187 190 189 186 184 183 182 180 173 167 155 145 136 128 124 126 115 119 112 104 122 119 120 112 91 69 65 67 57
135 76 181 219 155 233 168 158 185 185 159 180 192 219 223 182 181 180 181 186 188 194 195 194 195 189 191 189 187 181 176 168 163 154 144 148 145 140 137 115 130 138 131 121 104 73 65 63 57
121 127 206 217 200 229 184 180 170 165 166 198 193 198 183 182 181 184 189 191 194 195 196 200 201 200 197 197 197 196 191 188 186 182 171 174 178 172 163 145 149 170 161 139 120 107 93 69 61
158 178 210 253 272 256 205 189 179 159 228 201 196 181 181 182 185 192 196 203 202 201 204 205 207 209 208 207 207 204 205 204 205 203 194 194 200 194 184 176 179 185 182 161 143 131 135 88 57
167 226 235 279 322 239 181 178 186 180 203 219 209 202 186 188 191 196 201 204 207 208 213 213 210 214 217 215 216 217 216 216 220 222 218 213 222 225 211 203 201 201 205 194 183 183 174 153 68
218 268 240 294 312 253 179 188 204 202 197 223 200 189 193 196 199 202 207 208 210 216 218 220 218 219 220 222 222 221 223 225 227 231 230 229 229 237 234 231 222 219 223 219 218 214 210 220 262
193 100 315 303 302 232 160 182 176 222 213 209 192 196 198 200 203 205 209 212 214 219 226 227 226 225 227 228 229 230 229 228 231 234 238 236 236 238 243 242 243 239 236 237 233 236 238 241 262
176 59 344 287 278 283 140 267 225 210 200 204 197 201 203 207 207 213 214 216 218 222 229 234 234 226 225 231 231 235 233 235 236 236 236 238 239 242 245 245 247 247 243 244 247 245 245 258 269
143 90 4 298 184 249 143 248 260 212 195 198 201 204 208 211 216 218 221 223 224 226 228 237 239 234 229 227 231 236 239 242 241 241 244 242 242 246 249 251 251 248 249 250 249 249 254 257 266
2 183 155 303 234 148 149 247 224 203 204 205 208 211 215 220 221 225 225 228 229 230 231 236 239 241 235 232 233 235 237 240 242 244 246 246 247 249 250 250 253 253 253 255 255 254 258 263 271
170 168 194 206 238 223 190 250 259 224 216 219 215 220 221 226 227 230 229 230 234 235 237 239 241 241 242 241 235 239 241 243 244 244 245 249 252 257 260 258 254 254 254 254 257 258 262 269 277
166 174 194 191 195 170 222 246 253 237 229 232 230 227 225 232 233 237 238 235 234 233 233 235 236 237 237 235 235 234 238 243 246 247 248 251 254 255 262 259 257 254 256 259 261 264 266 271 276
155 171 211 55 141 145 304 264 248 225 238 235 231 232 232 235 238 239 240 239 238 238 237 237 236 236 236 238 239 245 243 240 243 248 250 251 251 254 253 257 256 258 259 260 262 265 268 270 272
180 182 180 203 131 190 20 285 268 252 242 245 246 244 244 243 244 241 239 242 245 239 239 241 242 240 238 241 243 244 246 241 241 243 244 248 251 253 255 257 260 263 260 260 262 262 264 269 273
194 207 161 146 134 216 167 270 268 251 264 238 245 242 243 243 245 244 242 242 243 242 243 246 247 245 243 240 242 245 252 254 258 259 260 256 256 256 258 259 261 263 264 263 265 267 268 269 272
218 139 163 141 124 125 224 214 265 163 273 261 242 239 242 246 250 250 246 242 239 237 239 243 246 248 245 242 243 246 251 258 263 265 264 265 260 262 257 263 265 263 262 263 263 264 268 269 271
138 83 53 58 99 250 209 177 255 202 210 246 245 247 251 254 252 255 241 234 236 238 241 238 238 241 244 243 243 246 249 254 257 261 260 263 263 265 266 267 266 268 268 267 274 262 270 272 268
118 127 37 272 247 223 345 216 242 236 250 227 247 271 286 259 236 232 225 226 233 234 235 236 235 235 238 242 244 248 252 254 256 259 261 262 262 267 272 270 272 264 271 268 268 265 266 271 278
173 164 155 188 220 222 121 231 240 230 253 261 262 259 287 252 217 218 218 221 225 228 230 229 231 235 239 243 249 253 253 254 257 259 259 257 257 261 274 265 269 265 267 265 267 265 266 267 270
200 201 160 104 20 61 213 282 301 248 259 244 250 235 235 226 203 203 211 210 216 219 221 224 228 236 242 248 249 251 253 256 258 259 260 254 256 253 262 264 264 264 264 264 263 261 263 264 269
191 154 169 14 146 247 263 261 231 256 233 207 224 224 213 212 208 209 213 217 220 224 229 232 237 238 239 240 242 243 245 249 252 254 255 254 258 244 252 254 261 263 261 257 261 265 265 276 270
142 178 135 136 161 177 251 258 220 231 205 207 222 221 214 214 218 216 211 208 210 213 214 212 211 214 219 224 226 229 230 233 237 240 242 243 246 239 245 249 262 259 251 261 263 260 272 253 268
209 182 184 196 208 244 152 270 254 251 249 222 245 229 214 216 218 221 216 210 208 211 217 220 221 220 222 225 227 225 224 223 226 228 232 236 241 244 243 247 248 255 260 258 252 260 274 275 282
Wind_Speed_850mb
9 12 12 6 8 9 4 5 2 8 6 6 22 8 13 10 7 6 41 32 33 28 26 26 25 19 20 23 24 25 27 24 25 26 26 26 25 22 20 19 24 24 19 26 24 23 24 26 28
10 10 4 7 9 5 8 6 10 5 29 43 29 17 8 4 8 25 47 36 31 27 27 28 25 22 21 23 22 25 23 24 26 29 27 26 24 20 17 16 15 30 25 25 23 22 23 25 26
10 6 1 8 7 7 9 7 9 12 34 6 13 13 7 12 14 55 39 40 38 31 29 29 26 22 21 21 21 23 22 21 23 27 26 28 25 22 20 22 26 27 29 27 23 23 26 25 26
6 2 9 8 7 9 10 9 18 17 7 6 28 12 7 6 33 38 44 40 40 35 31 29 27 24 21 20 19 20 22 18 22 28 25 27 24 28 28 25 27 26 27 24 22 22 19 19 18
7 3 7 3 6 7 7 21 32 12 9 15 14 8 6 24 30 33 42 40 41 37 34 31 29 25 22 19 18 18 17 17 19 20 23 23 26 26 23 18 23 23 23 23 20 16 15 15 18
6 5 6 7 6 8 3 20 13 9 20 20 15 20 15 28 19 38 39 38 40 36 36 33 30 27 23 20 18 17 17 15 15 16 17 15 17 17 14 15 18 20 20 18 16 14 15 17 20
13 8 10 7 8 3 8 22 10 16 19 16 30 14 13 37 26 33 36 37 38 36 37 35 32 29 25 21 18 15 14 14 13 12 12 10 12 14 13 13 13 17 17 14 13 11 13 16 19
12 11 8 7 11 10 11 24 13 26 9 29 25 14 13 46 41 37 41 37 36 38 37 37 35 33 29 25 21 17 14 13 12 10 8 8 8 7 9 10 10 14 13 12 10 8 11 14 17
11 8 6 9 12 12 19 10 16 15 26 16 23 11 9 50 48 50 49 44 41 41 41 39 37 35 33 28 23 20 17 13 11 9 8 7 6 5 5 8 8 9 9 9 7 6 9 10 12
8 8 16 9 8 10 27 23 35 15 21 12 25 20 20 51 57 61 60 55 48 45 46 42 40 37 36 32 27 23 20 17 14 10 8 7 6 7 8 7 7 8 8 7 7 6 5 6 9
9 10 9 3 9 18 19 19 29 21 8 25 39 31 44 56 62 62 58 53 51 41 41 44 41 39 38 34 31 27 23 21 17 13 10 8 7 7 8 8 8 8 7 6 7 5 4 4 6
5 10 8 7 9 4 19 22 16 35 15 31 32 38 51 61 67 67 62 56 49 46 42 39 45 43 41 37 34 30 28 25 21 17 14 10 8 7 8 10 11 11 9 7 7 5 4 3 3
3 4 5 10 11 7 18 17 11 38 13 17 34 47 51 59 62 62 57 52 50 50 43 43 43 46 44 42 40 37 34 30 26 24 20 17 13 10 10 11 13 13 12 10 10 8 8 5 3
10 3 10 10 7 5 14 6 12 26 24 19 41 50 51 55 58 61 64 59 61 55 52 44 46 46 44 44 42 41 39 35 34 31 27 24 20 17 14 14 14 15 16 15 16 13 11 10 8
7 7 14 13 4 3 9 1 14 13 29 32 49 50 52 53 55 60 58 62 62 59 54 51 47 48 50 45 42 42 40 39 40 37 34 31 28 25 21 18 18 16 19 21 20 19 17 15 14
8 9 1 9 8 4 9 16 9 17 32 41 53 56 58 56 56 55 57 60 62 64 64 57 53 51 53 51 48 44 42 40 42 41 40 37 33 30 29 26 22 21 22 23 24 24 22 21 21
1 8 6 16 8 2 6 14 10 26 34 37 53 58 60 61 58 58 56 58 60 61 66 63 61 60 54 55 53 51 49 48 44 43 41 41 37 35 35 33 28 28 28 27 26 27 26 26 27
11 11 9 24 9 5 6 16 10 8 32 49 52 61 64 67 61 56 55 54 57 61 65 63 63 63 63 56 55 59 56 56 51 48 47 44 45 40 40 38 36 36 36 34 33 30 31 33 37
9 13 12 7 4 6 13 15 20 18 13 35 49 57 62 71 58 57 56 54 55 56 60 62 63 63 65 63 62 62 65 62 61 57 52 48 46 45 43 43 42 43 44 40 39 39 39 41 43
7 10 9 1 5 6 5 23 18 12 20 38 58 58 62 66 63 61 59 57 61 60 60 59 61 60 59 60 61 58 56 66 66 63 61 55 52 51 51 47 46 46 48 48 46 46 46 48 49
9 13 9 9 7 1 2 15 13 12 33 50 51 54 62 71 71 64 60 64 63 68 62 62 61 61 58 57 55 59 57 55 61 68 67 65 58 56 55 53 50 48 51 55 51 53 54 54 55
13 10 8 10 10 9 8 10 11 9 16 13 52 65 81 82 78 69 61 57 58 59 57 56 56 64 65 62 63 63 57 60 54 54 50 52 52 56 61 59 56 55 53 53 53 56 59 59 60
15 9 12 6 6 2 4 3 13 4 12 19 45 74 82 78 80 79 72 59 53 52 56 58 55 55 64 64 67 62 62 58 51 50 48 45 43 45 53 55 58 62 62 60 58 54 56 60 63
14 12 12 8 6 8 14 13 10 9 16 14 20 39 46 48 57 58 60 62 58 55 53 61 63 58 60 64 68 70 69 66 62 60 53 48 44 46 45 47 48 54 59 57 69 63 62 66 58
8 16 2 3 5 10 2 4 18 13 20 16 20 20 21 29 34 32 36 52 59 56 53 55 64 62 59 62 64 66 66 67 66 65 59 53 49 50 49 46 48 46 51 52 56 61 60 54 54
12 18 11 12 7 8 6 14 12 26 42 44 45 39 24 16 17 25 29 34 40 46 49 51 55 57 57 58 58 61 63 65 65 64 60 56 56 47 50 41 52 44 50 50 50 48 44 46 47
12 15 12 13 6 5 9 12 21 19 22 24 24 28 36 21 16 14 19 26 33 36 38 42 47 50 53 57 59 60 60 61 64 61 57 53 49 43 42 44 41 43 45 44 44 41 42 46 43
21 19 7 4 8 8 9 8 10 13 19 13 16 32 33 29 24 25 27 28 30 32 35 39 44 47 46 44 41 44 49 57 60 57 55 51 47 45 45 41 39 40 39 37 38 42 43 42 38
7 9 5 9 10 9 3 11 17 26 19 21 25 33 30 29 26 24 25 29 31 33 33 32 33 30 26 24 24 24 26 32 37 40 42 42 42 42 42 41 38 42 34 34 36 36 39 26 24
8 15 18 13 11 5 5 12 6 20 11 15 26 26 31 33 29 27 28 29 31 32 30 28 26 25 26 27 25 25 27 27 29 30 30 31 36 40 41 35 37 27 31 33 24 19 22 24 24
Wind_Direction_850mb
280 305 332 10 48 61 309 241 338 132 108 176 145 175 157 85 150 201 147 153 153 154 153 147 137 122 105 111 113 114 112 103 93 95 107 121 129 125 118 116 107 104 114 95 85 87 81 76 71
275 303 342 84 84 57 275 271 172 206 135 116 106 104 73 107 136 148 149 152 154 160 157 152 140 132 116 114 112 111 113 102 94 102 99 114 129 134 130 124 120 100 97 100 84 87 86 82 76
273 292 80 90 108 170 219 215 184 136 147 138 108 87 107 150 168 154 155 152 161 165 160 156 144 140 125 118 114 109 113 107 100 105 96 95 104 111 112 109 98 96 101 98 91 93 89 88 77
254 198 65 90 203 247 202 209 160 140 133 136 123 72 92 168 159 157 159 160 165 166 163 161 152 149 136 126 115 106 111 109 98 108 100 99 94 92 95 98 95 99 105 105 97 92 85 76 65
205 110 67 87 261 250 248 176 166 144 132 129 137 155 92 144 159 163 164 166 171 169 168 167 160 157 149 138 129 119 112 102 100 105 114 111 110 111 122 104 104 104 100 95 92 85 73 64 51
123 92 75 208 259 293 157 163 179 142 145 145 117 127 144 167 179 168 171 170 176 176 172 173 168 166 162 156 145 132 122 113 107 105 103 107 116 124 122 100 92 97 100 95 84 72 66 58 59
133 94 197 193 213 276 177 190 189 165 159 178 151 129 177 186 189 182 178 174 181 186 180 178 176 174 172 168 158 147 133 126 118 111 111 110 104 109 111 105 93 103 109 99 85 73 69 66 61
139 98 130 222 179 235 196 170 209 179 191 157 166 170 187 186 185 183 179 180 187 190 189 186 184 183 182 180 173 167 155 145 136 128 124 126 115 119 112 104 122 119 120 112 91 69 65 67 57
135 76 181 219 155 233 168 158 185 185 159 180 192 219 223 182 181 180 181 186 188 194 195 194 195 189 191 189 187 181 176 168 163 154 144 148 145 140 137 115 130 138 131 121 104 73 65 63 57
121 127 206 217 200 229 184 180 170 165 166 198 193 198 183 182 181 184 189 191 194 195 196 200 201 200 197 197 197 196 191 188 186 182 171 174 178 172 163 145 149 170 161 139 120 107 93 69 61
158 178 210 253 272 256 205 189 179 159 228 201 196 181 181 182 185 192 196 203 202 201 204 205 207 209 208 207 207 204 205 204 205 203 194 194 200 194 184 176 179 185 182 161 143 131 135 88 57
167 226 235 279 322 239 181 178 186 180 203 219 209 202 186 188 191 196 201 204 207 208 213 213 210 214 217 215 216 217 216 216 220 222 218 213 222 225 211 203 201 201 205 194 183 183 174 153 68
218 268 240 294 312 253 179 188 204 202 197 223 200 189 193 196 199 202 207 208 210 216 218 220 218 219 220 222 222 221 223 225 227 231 230 229 229 237 234 231 222 219 223 219 218 214 210 220 262
193 100 315 303 302 232 160 182 176 222 213 209 192 196 198 200 203 205 209 212 214 219 226 227 226 225 227 228 229 230 229 228 231 234 238 236 236 238 243 242 243 239 236 237 233 236 238 241 262
176 59 344 287 278 283 140 267 225 210 200 204 197 201 203 207 207 213 214 216 218 222 229 234 234 226 225 231 231 235 233 235 236 236 236 238 239 242 245 245 247 247 243 244 247 245 245 258 269
143 90 4 298 184 249 143 248 260 212 195 198 201 204 208 211 216 218 221 223 224 226 228 237 239 234 229 227 231 236 239 242 241 241 244 242 242 246 249 251 251 248 249 250 249 249 254 257 266
2 183 155 303 234 148 149 247 224 203 204 205 208 211 215 220 221 225 225 228 229 230 231 236 239 241 235 232 233 235 237 240 242 244 246 246 247 249 250 250 253 253 253 255 255 254 258 263 271
170 168 194 206 238 223 190 250 259 224 216 219 215 220 221 226 227 230 229 230 234 235 237 239 241 241 242 241 235 239 241 243 244 244 245 249 252 257 260 258 254 254 254 254 257 258 262 269 277
166 174 194 191 195 170 222 246 253 237 229 232 230 227 225 232 233 237 238 235 234 233 233 235 236 237 237 235 235 234 238 243 246 247 248 251 254 255 262 259 257 254 256 259 261 264 266 271 276
155 171 211 55 141 145 304 264 248 225 238 235 231 232 232 235 238 239 240 239 238 238 237 237 236 236 236 238 239 245 243 240 243 248 250 251 251 254 253 257 256 258 259 260 262 265 268 270 272
180 182 180 203 131 190 20 285 268 252 242 245 246 244 244 243 244 241 239 242 245 239 239 241 242 240 238 241 243 244 246 241 241 243 244 248 251 253 255 257 260 263 260 260 262 262 264 269 273
194 207 161 146 134 216 167 270 268 251 264 238 245 242 243 243 245 244 242 242 243 242 243 246 247 245 243 240 242 245 252 254 258 259 260 256 256 256 258 259 261 263 264 263 265 267 268 269 272
218 139 163 141 124 125 224 214 265 163 273 261 242 239 242 246 250 250 246 242 239 237 239 243 246 248 245 242 243 246 251 258 263 265 264 265 260 262 257 263 265 263 262 263 263 264 268 269 271
138 83 53 58 99 250 209 177 255 202 210 246 245 247 251 254 252 255 241 234 236 238 241 238 238 241 244 243 243 246 249 254 257 261 260 263 263 265 266 267 266 268 268 267 274 262 270 272 268
118 127 37 272 247 223 345 216 242 236 250 227 247 271 286 259 236 232 225 226 233 234 235 236 235 235 238 242 244 248 252 254 256 259 261 262 262 267 272 270 272 264 271 268 268 265 266 271 278
173 164 155 188 220 222 121 231 240 230 253 261 262 259 287 252 217 218 218 221 225 228 230 229 231 235 239 243 249 253 253 254 257 259 259 257 257 261 274 265 269 265 267 265 267 265 266 267 270
200 201 160 104 20 61 213 282 301 248 259 244 250 235 235 226 203 203 211 210 216 219 221 224 228 236 242 248 249 251 253 256 258 259 260 254 256 253 262 264 264 264 264 264 263 261 263 264 269
191 154 169 14 146 247 263 261 231 256 233 207 224 224 213 212 208 209 213 217 220 224 229 232 237 238 239 240 242 243 245 249 252 254 255 254 258 244 252 254 261 263 261 257 261 265 265 276 270
142 178 135 136 161 177 251 258 220 231 205 207 222 221 214 214 218 216 211 208 210 213 214 212 211 214 219 224 226 229 230 233 237 240 242 243 246 239 245 249 262 259 251 261 263 260 272 253 268
209 182 184 196 208 244 152 270 254 251 249 222 245 229 214 216 218 221 216 210 208 211 217 220 221 220 222 225 227 225 224 223 226 228 232 236 241 244 243 247 248 255 260 258 252 260 274 275 282